Regional Weather Roundup
Issued by NWS

Home | Current Version | Previous Version | Text Only | Print | Product List | Glossary Off
Versions: 1 2 3 4 5 6 7 8 9 10 11 12 13 14 15 16 17 18 19 20 21 22 23 24 25 26 27 28 29 30 31 32 33 34 35 36 37 38 39 40 41 42 43 44 45 46 47 48 49 50

730
ASUS45 KPSR 231310
RWRAZ

ARIZONA HOURLY REGIONAL WEATHER ROUNDUP
NATIONAL WEATHER SERVICE PHOENIX AZ
600 AM MST THU MAR 23 2017

NOTE: FAIR INDICATES FEW OR NO CLOUDS BELOW 12,000 FEET WITH NO
SIGNIFICANT WEATHER AND/OR OBSTRUCTIONS TO VISIBILITY.

AZZ001>003-036-231400-
NORTHWEST ARIZONA

CITY           SKY/WX    TMP DP  RH WIND       PRES   REMARKS
BULLHEAD CITY  PTCLDY    55  36  47 SE10      29.85R
KINGMAN        PTCLDY    41  30  65 SW9       29.87R
$$

AZZ004>008-015-016-018-231400-
NORTH CENTRAL ARIZONA

CITY           SKY/WX    TMP DP  RH WIND       PRES   REMARKS
GRAND CANYON   LGT SNOW  33  33 100 S7        29.86R FOG     WCI  27
WILLIAMS       MOCLDY    32  30  93 S8        29.86S WCI  25
PRESCOTT       CLOUDY    39  37  92 SE6       29.89R WCI  35
FLAGSTAFF      LGT SNOW  31  30  96 S7        29.88R VSB 1   WCI  24
PAYSON         DRIZZLE   39  36  87 W8        29.93S WCI  34
PAGE           CLOUDY    46  32  58 S10       29.80S
$$

AZZ009>014-017-231400-
NORTHEAST ARIZONA

CITY           SKY/WX    TMP DP  RH WIND       PRES   REMARKS
WINSLOW        CLOUDY    42  40  92 NW7       29.87S
SAINT JOHNS    CLEAR     45  34  65 SW7       29.84F
WINDOW ROCK    CLEAR     41  32  70 S6        29.86F
SHOW LOW       MOCLDY    41  32  70 SW22      29.87S
$$

AZZ023-231400-
GREATER PHOENIX AREA

CITY           SKY/WX    TMP DP  RH WIND       PRES   REMARKS
PHOENIX        CLOUDY    56  47  71 E7        29.88R
BUCKEYE        CLOUDY    54  54 100 CALM      29.90R
GLENDALE       CLOUDY    55  55 100 CALM      29.91
LUKE AFB       CLOUDY    54  54  99 CALM      29.89R
DEER VALLEY    CLOUDY    52  47  83 CALM      29.88S
SCOTTSDALE     CLOUDY    54  46  74 VRB3      29.88F
MESA-GATEWAY   LGT RAIN  52  48  87 E5        29.91S
CHANDLER       LGT RAIN  54  50  87 E12       29.90
$$

AZZ027-028-231400-
SOUTHWEST MARICOPA COUNTY AND PINAL COUNTY

CITY           SKY/WX    TMP DP  RH WIND       PRES   REMARKS
CASA GRANDE    NOT AVBL
GILA BEND      FAIR      54  45  71 SW9       29.90R
$$

AZZ503-504-507>509-231400-
SOUTHEAST ARIZONA

CITY           SKY/WX    TMP DP  RH WIND       PRES   REMARKS
TUCSON         PTCLDY    58  44  60 W9        29.91R
DAVIS-MONTHAN  PTCLDY    58  45  60 W13       29.90R
RYAN FIELD     PTCLDY    55  45  67 NW21      29.93
NOGALES        CLEAR     52  43  71 SW13      29.93R
SIERRA VISTA   MOCLDY    54  39  56 SW13      29.93R
DOUGLAS        CLEAR     52  40  63 SW7       29.90S
SAFFORD        CLEAR     55  41  59 NW6       29.83R
$$

AZZ020-021-025-026-031-231400-
SOUTHWEST ARIZONA

CITY           SKY/WX    TMP DP  RH WIND       PRES   REMARKS
YUMA           PTCLDY    56  41  57 VRB3      29.94R
$$

CAZ031-033-041-043-047-048-061-231400-
SOUTHERN CALIFORNIA

CITY           SKY/WX    TMP DP  RH WIND       PRES   REMARKS
DOWNTOWN L.A.  PTCLDY    57  38  48 NW6       30.02R
L.A. AIRPORT   PTCLDY    56  40  55 NW10      30.03R
SAN DIEGO      MOCLDY    58  47  66 W12       30.08R
BURBANK        CLEAR     54  35  48 NW9       30.02R
ONTARIO        MOCLDY    50  46  86 W5        30.01R
RIVERSIDE      MOCLDY    48  45  89 CALM      30.01R
PALM SPRINGS   CLEAR     60  38  43 W6G25     29.92R
EL CENTRO NAS  PTCLDY    59  37  44 W26       29.97R
IMPERIAL       PTCLDY    57  41  55 W16       29.95R
BLYTHE         CLEAR     54  42  64 SW3       29.91R
NEEDLES        MOCLDY    60  34  37 W13       29.85R
$$

NVZ020-UTZ003-231400-
SOUTHERN NEVADA-UTAH

CITY           SKY/WX    TMP DP  RH WIND       PRES   REMARKS
LAS VEGAS      MOCLDY    54  28  36 CALM      29.81R
SALT LAKE CITY LGT RAIN  39  37  92 E8        29.74F WCI  33
$$

NMZ009-TXZ055-231400-
NEW MEXICO-WEST TEXAS

CITY           SKY/WX    TMP DP  RH WIND       PRES   REMARKS
ALBUQUERQUE    CLEAR     54  16  22 S10       29.86R
EL PASO        PTCLDY    63  13  14 S8        29.87F
$$


........................KEY........................
SKY/WX - SKY CONDITION/WEATHER
TMP    - TEMPERATURE IN FAHRENHEIT
DP     - DEW POINT IN FAHRENHEIT
RH     - RELATIVE HUMIDITY IN PERCENT
WIND   - DIRECTION AND SPEED IN MILES PER HOUR (MPH)
VRB    - VARIABLE WIND DIRECTION
PRES   - MEAN SEA LEVEL PRESSURE IN INCHES OF MERCURY
         F - FALLING PRESSURE   R - RISING PRESSURE
         S - STEADY PRESSURE
VSB    - VISIBILITY IN MILES
HX     - HEAT INDEX IN FAHRENHEIT
WCI    - WIND CHILL INDEX IN FAHRENHEIT
TC     - TEMPERATURE IN CELSIUS WHICH IS ALSO KNOWN AS
         TEMPERATURE IN CENTIGRADE
AFB    - AIR FORCE BASE
         LUKE AFB IS LUKE AIR FORCE BASE
         DAVIS-MONTHAN IS DAVIS-MONTHAN AIR FORCE BASE
NAS    - NAVAL AIR STATION
         EL CENTRO NAS IS EL CENTRO NAVAL AIR STATION
N/A    - NOT AVAILABLE





USA.gov is the U.S. government's official web portal to all federal, state and local government web resources and services.